Probability
0 0 0 0 0 0 0 0 0 0 0 0 0 0 0 0 0 0 0 0 0 0 0 0 0 0 0 0 0 0 0 0 0 0 0 0 0 0 0 0 0 0 0 0
0 0 0 0 0 0 0 0 0 0 0 0 0 0 0 0 0 0 0 0 0 0 0 0 0 0 0 0 0 0 0 0 0 0 0 0 0 0 0 0 0 0 0 0
0 0 0 0 0 0 0 0 0 0 0 0 0 0 0 0 0 0 0 0 0 0 0 0 0 0 0 0 0 0 0 0 0 0 0 0 0 0 0 0 0 0 0 0
0 0 0 0 0 0 0 0 0 0 0 0 0 0 0 0 0 0 0 0 0 0 0 0 0 0 0 0 0 0 0 0 0 0 0 0 0 0 0 0 0 0 0 0
0 0 0 0 0 0 0 0 0 0 0 0 0 0 0 0 0 0 0 0 0 0 0 0 0 0 0 0 0 0 0 0 0 0 0 0 0 0 0 0 0 0 0 0
0 0 0 0 0 0 0 0 0 0 0 0 0 0 0 0 0 0 0 0 0 0 0 0 0 0 0 0 0 0 0 0 0 0 0 0 0 0 0 0 0 0 0 0
0 0 0 0 0 0 0 0 0 0 0 0 0 0 0 0 0 0 0 0 0 0 0 0 0 0 0 0 0 0 0 0 0 0 0 0 0 0 0 0 0 0 0 0
0 0 0 0 0 0 0 0 0 0 0 0 0 0 0 0 0 0 0 0 0 0 0 0 0 0 0 0 0 0 0 0 0 0 0 0 0 0 0 0 0 0 0 0
0 0 0 0 0 0 0 0 0 0 0 0 0 0 0 0 0 0 0 0 0 0 0 0 0 0 0 0 0 0 0 0 0 0 0 0 0 0 0 0 0 0 0 0
0 0 0 0 0 0 0 0 0 0 0 0 0 0 0 0 0 0 0 0 0 0 0 0 0 0 0 0 0 0 0 0 0 0 0 0 0 0 0 0 0 0 0 0
0 0 0 0 0 0 0 0 0 0 0 0 0 0 0 0 0 0 0 0 0 0 0 0 0 0 0 0 0 0 0 0 0 0 0 0 0 0 0 0 0 0 0 0
0 0 0 0 0 0 0 0 0 0 0 0 0 0 0 0 0 0 0 0 0 0 0 0 0 0 0 0 0 0 0 0 0 0 0 0 0 0 0 0 0 0 0 0
0 0 0 0 0 0 0 0 0 0 0 0 0 0 0 0 0 0 0 0 0 0 0 0 0 0 0 0 0 0 0 0 0 0 0 0 0 0 0 0 0 0 0 0
0 0 0 0 0 0 0 0 0 0 0 0 0 0 0 0 0 0 0 0 0 0 0 0 0 0 0 0 0 0 0 0 0 0 0 0 0 0 0 0 0 0 0 0
0 0 0 0 0 0 0 0 0 0 0 0 0 0 0 0 0 0 0 0 0 0 0 0 0 0 0 0 0 0 0 0 0 0 0 0 0 0 0 0 0 0 0 0
0 0 0 0 0 0 0 0 0 0 0 0 0 0 0 0 0 0 0 0 0 0 0 0 0 0 0 0 0 0 0 0 0 0 0 0 0 0 0 0 0 0 0 0
0 0 0 0 0 0 0 0 0 0 0 0 0 0 0 0 0 0 0 0 0 0 0 0 0 0 0 0 0 0 0 0 0 0 0 0 0 0 0 0 0 0 0 0
0 0 0 0 0 0 0 0 0 0 0 0 0 0 0 0 0 0 0 0 0 0 0 0 0 0 0 0 0 0 0 0 0 0 0 0 0 0 0 0 0 0 0 0
0 0 0 0 0 0 0 0 0 0 0 0 0 0 0 0 0 0 0 0 0 0 0 0 0 0 0 0 0 0 0 0 0 0 0 0 0 0 0 0 0 0 0 0
0 0 0 0 0 0 0 0 0 0 0 0 0 0 0 0 0 0 0 0 0 0 0 0 0 0 0 0 0 0 0 0 0 0 0 0 0 0 0 0 0 0 0 0
0 0 0 0 0 0 0 0 0 0 0 0 0 0 0 0 0 0 0 0 0 0 0 0 0 0 0 0 0 0 0 0 0 0 0 0 0 0 0 0 0 0 0 0
0 0 0 0 0 0 0 0 0 0 0 0 0 0 0 0 0 0 0 0 0 0 0 0 0 0 0 0 0 0 0 0 0 0 0 0 0 0 0 0 0 0 0 0
0 0 0 0 0 0 0 0 0 0 0 0 0 0 0 0 0 0 0 0 0 0 0 0 0 0 0 0 0 0 0 0 0 0 0 0 0 0 0 0 0 0 0 0
0 0 0 0 0 0 0 0 0 0 0 0 0 0 0 0 0 0 0 0 0 0 0 0 0 0 0 0 0 0 0 0 0 0 0 0 0 0 0 0 0 0 0 0
0 0 0 0 0 0 0 0 0 0 0 0 0 0 0 0 0 0 0 0 0 0 0 0 0 0 0 0 0 0 0 0 0 0 0 0 0 0 0 0 0 0 0 0
0 0 0 0 0 0 0 0 0 0 0 0 0 0 0 0 0 0 0 0 0 0 0 0 0 0 0 0 0 0 0 0 0 0 0 0 0 0 0 0 0 0 0 0
0 0 0 0 0 0 0 0 0 0 0 0 0 0 0 0 0 0 0 0 0 0 0 0 0 0 0 0 0 0 0 0 0 0 0 0 0 0 0 0 0 0 0 0
Wind_Speed
2 1 1 1 1 3 3 5 6 5 3 5 4 3 3 3 3 4 5 4 3 3 2 2 2 3 3 4 4 5 5 6 7 6 5 5 4 4 3 3 4 3 2 2
1 2 1 1 1 2 2 2 2 1 2 4 3 1 3 4 4 4 4 4 4 4 3 3 3 3 3 4 4 4 6 7 5 4 5 5 5 4 4 4 3 3 3 3
1 3 2 2 2 3 2 1 4 4 5 2 2 2 2 2 3 3 4 4 4 4 4 4 4 3 4 4 3 4 5 5 4 5 5 5 5 4 5 5 4 4 4 3
1 2 2 5 1 4 4 1 1 2 2 2 1 1 1 1 2 4 5 5 5 4 4 4 2 2 2 1 2 4 4 5 4 5 5 5 4 5 5 4 4 4 4 4
3 1 3 4 1 2 3 0 1 1 1 1 1 2 4 4 3 3 4 4 4 4 3 2 2 1 0 0 1 2 4 5 5 5 6 5 6 6 5 4 5 5 4 5
4 3 4 5 3 2 4 1 3 1 1 1 3 3 4 5 4 4 5 4 4 4 2 2 2 0 1 1 1 3 5 6 5 5 6 6 7 6 4 4 5 5 5 5
4 3 5 5 4 2 4 4 2 0 0 1 2 3 4 4 4 4 4 5 4 3 3 3 2 0 1 1 4 5 4 4 4 5 6 6 5 4 4 4 4 5 5 5
4 3 6 3 2 3 4 2 0 0 1 1 1 2 2 3 4 5 6 6 5 4 4 3 2 1 2 4 5 3 3 3 4 4 5 4 5 4 4 4 4 5 4 4
6 5 2 1 1 0 1 1 1 0 1 0 0 2 3 3 4 5 5 5 5 4 5 4 2 2 4 6 4 3 3 4 4 4 4 4 4 5 4 4 4 5 5 5
1 2 1 1 1 2 2 0 1 0 0 1 0 1 2 3 4 5 5 5 5 4 5 6 4 4 5 5 3 3 4 5 4 3 4 4 4 4 5 5 5 6 6 6
1 3 2 2 2 2 2 2 2 2 1 0 0 1 2 3 4 4 4 4 4 4 5 6 6 5 5 4 3 4 5 5 4 4 4 4 4 5 6 7 7 8 7 7
6 5 3 3 3 1 1 2 2 1 2 2 1 2 2 3 3 3 4 4 4 5 6 6 6 7 6 4 4 4 5 5 4 4 4 4 4 4 6 7 10 12 11 9
4 2 2 2 1 1 1 2 3 2 3 3 3 3 3 3 3 4 4 5 5 6 6 6 6 7 7 5 4 5 6 6 4 4 4 4 4 5 5 5 6 9 11 12
1 2 0 1 2 2 2 3 3 3 4 4 4 3 3 3 4 4 5 6 5 6 6 6 6 7 7 6 6 6 6 7 6 5 5 5 5 6 5 5 5 5 6 10
2 2 3 3 2 3 2 2 3 4 4 4 4 4 4 4 5 6 6 6 5 6 6 6 7 8 7 6 6 7 6 5 5 5 5 5 5 5 5 6 6 4 3 4
2 1 1 1 2 3 3 3 3 5 5 5 5 6 6 6 6 6 6 5 5 7 7 7 8 9 7 6 6 6 6 10 8 5 5 5 5 5 6 6 6 6 6 5
2 2 2 3 4 4 4 5 5 6 5 6 7 6 6 6 6 6 7 6 6 7 7 8 9 9 7 7 6 5 5 7 10 7 5 6 6 6 6 6 7 7 7 7
4 5 4 4 4 5 5 5 5 5 6 6 6 5 5 6 7 8 8 7 7 7 8 8 8 8 8 7 6 5 5 5 6 6 6 6 6 6 6 7 7 8 6 6
2 2 3 4 4 4 5 5 6 6 6 6 5 6 7 7 7 7 7 6 7 9 9 8 12 9 8 9 9 5 6 7 6 6 6 8 7 6 6 7 7 7 6 6
2 3 3 4 4 4 5 5 5 6 6 5 6 6 7 7 7 6 6 7 7 8 8 10 9 8 8 8 10 5 6 7 7 7 6 6 7 7 7 7 7 7 7 7
4 4 4 5 5 5 5 5 5 6 6 6 6 7 8 8 7 6 5 7 8 8 8 12 8 6 7 8 11 6 6 7 7 7 7 7 7 7 7 7 7 7 7 6
4 5 6 6 6 6 6 5 5 6 6 6 7 7 7 7 7 6 6 7 8 11 7 6 6 9 12 13 5 6 7 7 7 7 7 7 6 7 7 7 7 6 6 6
5 5 6 6 6 6 6 5 5 5 6 7 7 7 7 7 5 5 7 6 6 11 8 6 10 16 19 9 5 6 7 8 7 7 7 7 6 6 6 7 6 5 5 5
6 6 6 6 4 4 6 7 6 5 6 7 7 7 7 6 6 6 6 10 12 13 7 9 15 17 15 5 5 5 6 7 7 7 6 6 5 5 5 5 5 5 4 5
6 6 6 5 5 6 7 7 6 6 6 6 7 8 6 5 6 6 6 7 11 12 7 10 15 16 9 5 5 6 6 7 7 6 5 5 5 5 5 4 4 4 4 4
5 5 5 6 6 6 5 4 4 5 5 6 6 6 5 5 5 6 5 6 8 10 8 6 7 8 6 6 6 7 6 7 7 5 5 5 5 5 4 4 4 4 3 3
6 5 4 5 5 5 5 5 5 6 6 6 7 6 6 5 5 6 6 6 6 6 6 6 6 5 6 6 6 6 5 5 5 5 4 4 3 3 4 4 3 2 2 3
Wind_Direction
207 223 160 206 172 155 162 173 172 213 216 276 296 294 322 354 17 24 9 356 334 302 282 269 260 243 227 227 215 202 201 213 223 222 220 223 226 225 224 222 224 223 222 235
24 34 69 12 327 162 165 160 175 162 260 274 298 7 24 18 23 14 348 332 323 318 303 277 259 254 243 236 219 197 205 221 223 215 213 218 223 220 220 226 227 216 219 225
277 315 45 310 261 166 145 167 160 188 236 288 359 12 2 351 6 348 328 324 317 300 279 266 254 241 240 240 214 198 214 224 219 214 218 221 219 213 220 225 221 223 229 224
116 54 215 243 255 152 133 90 164 205 240 220 219 260 335 10 2 333 328 325 319 311 302 288 277 261 258 242 202 208 222 230 223 215 224 224 216 220 225 220 215 222 230 228
118 145 282 295 277 169 151 20 321 209 280 335 350 36 358 358 344 302 302 301 299 296 287 298 310 300 288 278 228 225 236 238 233 220 223 222 222 226 224 216 218 217 220 219
126 153 223 247 289 288 115 330 317 30 341 4 64 45 300 326 334 325 324 321 319 322 330 335 320 341 116 262 253 251 249 245 236 222 219 224 228 227 219 215 222 218 222 219
148 195 258 265 294 80 132 238 280 177 125 123 153 211 267 317 334 334 331 332 337 346 347 323 319 79 246 257 252 256 263 259 242 229 226 226 227 225 218 216 219 218 223 225
144 177 248 306 68 134 199 226 193 153 151 162 236 304 326 338 341 346 348 348 350 348 334 330 331 296 280 268 269 280 271 264 255 243 238 231 220 222 214 207 214 219 223 234
182 201 237 335 136 217 154 136 283 267 294 151 29 337 339 343 344 343 343 341 341 335 326 326 321 285 271 277 289 287 275 266 263 259 245 231 216 218 214 210 216 220 217 228
236 264 274 343 16 23 53 92 306 289 291 99 43 322 333 335 333 333 332 332 333 333 327 320 314 295 277 288 285 272 268 269 263 254 254 242 229 217 214 214 220 221 218 225
261 273 325 346 351 357 7 8 5 355 347 248 239 317 311 313 314 314 315 315 318 314 307 305 307 302 299 295 278 272 271 269 266 253 246 241 234 229 226 225 219 218 220 214
220 220 190 244 276 328 13 339 321 323 327 310 271 272 289 291 292 299 307 309 313 309 304 305 308 305 305 295 276 269 274 269 261 257 249 240 240 259 254 248 245 238 231 218
213 198 184 229 279 289 265 279 286 274 265 277 283 272 273 278 284 291 300 305 304 302 300 299 302 302 304 297 285 269 264 266 261 254 249 241 235 237 259 270 255 247 238 228
191 115 360 278 268 287 286 284 286 284 275 267 267 274 275 277 285 289 290 290 290 295 298 297 297 297 299 297 286 278 273 271 266 250 246 242 238 237 237 239 249 255 244 232
256 206 211 240 272 293 298 311 317 303 293 288 280 277 275 276 279 282 285 289 293 295 296 298 298 297 300 297 287 282 281 275 265 255 249 246 244 241 240 239 239 243 243 234
242 273 238 247 263 282 298 297 289 286 287 284 283 278 273 271 274 279 284 287 290 290 292 293 290 292 295 294 290 284 276 283 284 268 257 251 244 239 238 238 237 232 228 222
183 257 261 271 274 276 270 264 260 268 276 278 278 281 285 287 288 287 287 284 277 277 280 281 283 289 291 288 283 280 277 278 283 278 260 252 245 240 237 236 235 234 233 219
211 221 226 233 249 267 276 278 278 279 277 275 281 286 285 281 279 282 287 292 292 289 282 277 280 289 289 288 283 277 275 270 265 264 263 257 251 246 240 238 237 236 239 219
260 256 260 259 257 255 260 268 274 277 279 282 281 277 273 272 273 278 284 287 287 287 284 281 295 300 289 286 291 275 276 274 270 267 262 259 256 250 244 240 238 235 230 217
283 278 273 274 275 266 266 270 274 279 281 279 279 281 281 279 277 277 278 276 269 267 275 285 289 284 283 284 291 276 274 276 273 269 266 260 254 251 246 242 240 235 230 219
280 282 281 279 280 277 269 268 271 277 282 280 273 272 275 279 279 275 275 281 280 276 279 288 288 281 283 285 290 279 276 278 274 266 262 260 257 254 248 244 241 237 232 221
274 275 277 279 279 280 277 271 267 271 279 281 279 278 279 282 281 278 265 261 274 288 290 280 279 285 293 297 284 279 279 279 277 269 261 258 257 254 250 245 240 239 234 222
274 272 275 274 270 272 281 280 270 269 271 273 276 279 276 274 272 271 280 277 276 290 294 280 286 296 302 301 280 278 279 277 275 269 264 260 257 254 251 246 241 235 230 219
273 273 273 275 277 278 279 278 274 271 269 271 269 268 268 276 279 266 262 286 295 296 291 286 294 300 306 294 278 277 278 276 272 267 264 263 262 261 254 245 239 233 223 212
268 271 274 276 272 266 264 272 281 281 277 275 274 271 263 250 257 275 281 283 290 299 295 297 302 307 307 290 282 279 279 275 272 269 260 260 260 259 256 244 236 227 214 206
265 266 265 258 255 261 264 265 268 273 275 279 282 277 271 266 263 270 277 278 279 289 290 287 291 298 294 290 288 287 285 287 290 282 267 263 262 262 260 250 235 225 211 199
269 266 266 270 267 255 251 252 259 266 264 263 273 277 276 277 276 276 276 279 282 284 283 284 286 288 289 291 293 295 294 292 291 289 277 266 264 262 259 247 233 216 200 187